Terminal Aerodrome Forecast
Issued by NWS

Home | Current Version | Previous Version | Text Only | Print | Product List | Glossary On
Versions: 1 2 3 4 5 6 7 8 9 10 11 12 13 14 15 16 17 18 19 20 21 22 23 24 25 26 27 28 29 30 31 32
000
FTAK31 PANC 222320
TAFAGK
TAF
PAGK 222320Z 2300/2324 32008KT P6SM VCSH SCT010 BKN040
      TEMPO 2300/2302 BKN010
     FM230600 VRB05KT P6SM FEW040 BKN080=

USA.gov is the U.S. government's official web portal to all federal, state and local government web resources and services.